EW2485 Weather Reports


Display with metric or nautical units.
time (UTC)temp
F
wind
direction
speed
MPH
gust
MPH
rain 1hr
in
rain 24hr
in
rain mn
in
humidity
%
barometer
mb
20260505021535 61 182 3.0 7.0 0.00 0.00 0.00 58 1005.9
20260505020053 62 211 3.0 13.0 0.00 0.00 0.00 57 1005.9
20260505014514 63 195 5.0 15.0 0.00 0.00 0.00 56 1005.8
20260505013053 62 203 7.0 15.0 0.00 0.00 0.00 56 1005.6
20260505011558 63 170 5.0 12.0 0.00 0.00 0.00 55 1005.6
20260505010009 64 202 5.0 13.0 0.00 0.00 0.00 54 1005.5
20260505004535 64 190 6.0 14.0 0.00 0.00 0.00 52 1005.5
20260505003103 65 159 5.0 12.0 0.00 0.00 0.00 49 1005.3
20260505001541 65 193 6.0 12.0 0.00 0.00 0.00 48 1005.1
20260505000029 66 213 3.0 7.0 0.00 0.00 0.00 47 1004.9
20260504234505 68 168 6.0 12.0 0.00 0.00 0.00 45 1004.9
20260504233036 69 213 5.0 16.0 0.00 0.00 0.00 44 1004.8
20260504231553 70 167 6.0 17.0 0.00 0.00 0.00 43 1004.7
20260504230017 71 165 9.0 20.0 0.00 0.00 0.00 41 1004.7
20260504224543 73 212 7.0 15.0 0.00 0.00 0.00 35 1004.7
20260504223105 73 202 5.0 13.0 0.00 0.00 0.00 36 1004.9
20260504221525 74 218 6.0 14.0 0.00 0.00 0.00 35 1004.8
20260504220045 74 234 12.0 20.0 0.00 0.00 0.00 34 1004.9
20260504214616 74 195 7.0 24.0 0.00 0.00 0.00 35 1005.0
20260504213039 74 279 7.0 20.0 0.00 0.00 0.00 35 1004.9
20260504211600 74 306 10.0 21.0 0.00 0.00 0.00 35 1005.0
20260504210040 75 253 10.0 16.0 0.00 0.00 0.00 35 1005.3
20260504204603 73 231 10.0 23.0 0.00 0.00 0.00 37 1005.4
20260504203027 72 252 6.0 21.0 0.00 0.00 0.00 38 1005.5
20260504201552 72 230 8.0 31.0 0.00 0.00 0.00 40 1005.8
20260504194522 73 211 13.0 29.0 0.00 0.00 0.00 41 1006.2
20260504193046 73 181 7.0 26.0 0.00 0.00 0.00 41 1006.5
20260504191515 71 241 13.0 24.0 0.00 0.00 0.00 42 1006.5
20260504190040 71 243 6.0 19.0 0.00 0.00 0.00 43 1006.8
20260504184503 71 247 11.0 23.0 0.00 0.00 0.00 43 1006.9
20260504183046 70 168 9.0 19.0 0.00 0.00 0.00 45 1007.0
20260504181532 71 239 11.0 21.0 0.00 0.00 0.00 44 1007.1
20260504180055 70 220 9.0 22.0 0.00 0.00 0.00 46 1007.2
20260504174526 68 259 13.0 28.0 0.00 0.00 0.00 47 1007.5
20260504173043 69 248 7.0 19.0 0.00 0.00 0.00 50 1007.6
20260504171507 68 221 10.0 23.0 0.00 0.00 0.00 47 1007.6
20260504120110 48 182 8.0 18.0 0.00 0.00 0.00 65 1010.6
20260504081544 46 210 6.0 12.0 0.00 0.00 0.00 67 1010.8
20260504044550 45 113 2.0 3.0 0.00 0.00 0.00 70 1011.3
20260504043002 46 138 2.0 4.0 0.00 0.00 0.00 67 1011.2
20260504041541 48 135 1.0 3.0 0.00 0.00 0.00 66 1011.2
20260504040009 48 223 1.0 3.0 0.00 0.00 0.00 63 1011.2
20260504034533 49 135 1.0 3.0 0.00 0.00 0.00 62 1011.3
20260504033052 50 149 2.0 6.0 0.00 0.00 0.00 60 1011.4
20260504031501 51 152 2.0 4.0 0.00 0.00 0.00 56 1011.5
20260504030031 51 324 1.0 3.0 0.00 0.00 0.00 55 1011.5
20260504024538 51 219 1.0 4.0 0.00 0.00 0.00 55 1011.6
20260504023051 52 250 2.0 7.0 0.00 0.00 0.00 55 1011.8